Location: Rotheul
(50.2849°N, 11.2349°E)
Time: 19:16:14
(UTC+02:00)

ISS - Pass Details

Date: 23 May 2018
Orbit: 402 x 408 km, 51.6° (Epoch: 19 September)

Event Time Altitude Azimuth Distance (km) Brightness Sun altitude
Rises 23:38:53 0° 263° (W) 2,318 0.2 -16.1°
Reaches altitude 10° 23:40:58 10° 266° (W) 1,458 -0.8 -16.2°
Maximum altitude 23:44:13 73° 351° (N) 425 -3.7 -16.4°
Drops below altitude 10° 23:47:29 10° 77° (ENE) 1,459 -1.1 -16.6°
Sets 23:49:35 0° 80° (E) 2,319 -0.1 -16.7°
